814  
ASCA42 TJSJ 040510  
RWRPR  
PUERTO RICO/U.S. VIRGIN ISLANDS HOURLY WEATHER ROUNDUP  
NATIONAL WEATHER SERVICE SAN JUAN PR  
100 AM AST THU JUN 04 2020  
 
PRZ001>002-007>008-010-040600-  
PUERTO RICO  
 
CITY SKY/WX TMP DP RH WIND PRES REMARKS
 
SAN JUAN LMM PTCLDY 81 73 78 E8 30.01F  
CEIBA CLOUDY 82 73 74 E14 30.03F  

 
 
VIZ001>002-040600-  
U.S. VIRGIN ISLANDS  
 
CITY SKY/WX TMP DP RH WIND PRES REMARKS
 
CHARLOTTE AMA PTCLDY 82 72 69 E16G23 30.00F  
CHRISTIANSTED PTCLDY 82 72 69 E14 30.01F  

 
 
HOURLY WEATHER ROUNDUP FOR THE NEWS MEDIA  
 
CITY SKY/WX TMP DP RH WIND PRES REMARKS
 
ORLANDO LGT RAIN 76 73 91 CALM 30.01F  
NEW YORK MOCLDY 65 64 97 SW7 29.75R  
NEWARK MOCLDY 69 65 86 CALM 29.74R  
CHICAGO MOCLDY 74 58 57 SE8 29.78R  
HARTFORD PTCLDY 67 64 90 SW6 29.67R  
BOSTON MOCLDY 68 60 75 NW6 29.67R  
DALLAS CLEAR 83 67 58 S12 29.88S  
PHILADELPHIA CLOUDY 71 68 90 W3 29.77R  
LOS ANGELES CLEAR 67 60 78 SE7 29.88R  
WASHINGTON DC MOCLDY 78 59 51 W7 29.81R  
 
CLICK HERE TO GO TO PREVIOUS BULLETINS.

The Nexlab PR Page Main Text Page